Location: Unspecified
(50.7693°N, 0.0000°E)
Time: 05:53:48
(UTC+00:00)

Transit 2A - Pass Details

Date: 18 August 2020
Orbit: 591 x 967 km, 66.7° (Epoch: 20 September)

Event Time Altitude Azimuth Distance (km) Brightness Sun altitude
Rises 03:11:20 0° 320° (NW) 3,666 9.6 -14.3°
Reaches altitude 10° 03:14:00 10° 316° (NW) 2,706 8.8 -14.0°
Maximum altitude 03:20:09 53° 242° (WSW) 1,138 6.5 -13.3°
Drops below altitude 10° 03:25:55 10° 168° (SSE) 2,539 8.4 -12.6°
Sets 03:28:21 0° 163° (SSE) 3,423 9.1 -12.3°
